* Astronomy

Members Login
Post Info TOPIC: Asteroid 2014 SR339


L

Posts: 131433
Date:
Asteroid 505657 (2014 SR339)
Permalink  
 


Asteroid 2014 SR339 in the constellation Orion reaches magnitude +14.2 at ~02:40 UT, 9th February 2018. 

Distance to Earth: 0.055 AU (21.5 lunar distances)



__________________


L

Posts: 131433
Date:
Asteroid 2014 SR339
Permalink  
 


Orbital elements:
2014 SR339                                               Earth MOID = 0.4546 AU
Epoch 2014 Dec. 9.0 TT = JDT 2457000.5                  MPC
M 352.95054              (2000.0)            P               Q
n   0.41049857     Peri.  269.25156     +0.56216917     -0.68816039
a   1.7930605      Node   134.06269     +0.73639046     +0.66895979
e   0.3597525      Incl.   39.66784     -0.37642386     +0.28094141
P   2.40           H   17.7           G   0.15           U   9

MPEC 2014 - T49

Ed ~ 800 - 1800 metres wide



__________________
Page 1 of 1  sorted by
 
Quick Reply

Please log in to post quick replies.



Create your own FREE Forum
Report Abuse
Powered by ActiveBoard